FW4817 Weather Reports


time (UTC)temp
C
wind
direction
speed
KPH
gust
KPH
rain 1hr
cm
rain 24hr
cm
rain mn
cm
humidity
%
barometer
mb
20260505041558 23 111 3.2 6.4 0.00 0.00 0.00 86 1016.2
20260505040054 23 107 4.8 9.7 0.00 0.00 0.00 86 1016.1
20260505034543 23 125 6.4 11.3 0.00 0.00 0.00 86 1016.3
20260505033046 23 110 3.2 6.4 0.00 0.00 0.00 85 1016.5
20260505031547 23 132 3.2 6.4 0.00 0.00 0.00 85 1016.5
20260505030043 24 115 6.4 11.3 0.00 0.00 0.00 85 1016.7
20260505024541 24 117 4.8 9.7 0.00 0.00 0.00 85 1016.6
20260505023044 24 111 4.8 9.7 0.00 0.00 0.00 86 1016.5
20260505021541 24 113 4.8 11.3 0.00 0.00 0.00 85 1016.4
20260505020037 25 141 1.6 6.4 0.00 0.00 0.00 84 1016.2
20260505014549 25 117 4.8 11.3 0.00 0.00 0.00 84 1016.0
20260505013036 25 104 1.6 6.4 0.00 0.00 0.00 85 1016.1
20260505011534 26 71 4.8 8.0 0.00 0.00 0.00 86 1015.9
20260505010034 26 65 6.4 12.9 0.00 0.00 0.00 86 1015.9
20260505004537 26 48 3.2 6.4 0.00 0.00 0.00 82 1015.6
20260505003032 27 90 3.2 6.4 0.00 0.00 0.00 81 1015.5
20260505001532 27 76 3.2 6.4 0.00 0.00 0.00 81 1015.3
20260505000035 27 59 3.2 9.7 0.00 0.00 0.00 81 1015.2
20260504234530 27 115 3.2 4.8 0.00 0.00 0.00 80 1015.2
20260504233032 27 188 4.8 12.9 0.00 0.00 0.00 79 1015.0
20260504231529 27 154 6.4 12.9 0.00 0.00 0.00 78 1014.9
20260504230029 28 142 9.7 17.7 0.00 0.00 0.00 77 1014.8
20260504224529 28 156 14.5 24.1 0.00 0.00 0.00 76 1014.7
20260504223027 28 189 11.3 24.1 0.00 0.00 0.00 76 1014.6
20260504221529 28 158 12.9 22.5 0.00 0.00 0.00 75 1014.5
20260504220025 28 164 9.7 29.0 0.00 0.00 0.00 74 1014.2
20260504214523 29 229 6.4 17.7 0.00 0.00 0.00 74 1014.1
20260504213044 29 157 8.0 25.7 0.00 0.00 0.00 73 1014.0
20260504211522 29 161 12.9 19.3 0.00 0.00 0.00 71 1014.0
20260504210026 29 238 12.9 22.5 0.00 0.00 0.00 71 1014.0
20260504204522 29 179 11.3 29.0 0.00 0.00 0.00 70 1014.0
20260504203020 30 189 12.9 29.0 0.00 0.00 0.00 70 1014.0
20260504201525 30 154 12.9 27.4 0.00 0.00 0.00 70 1013.9
20260504200019 30 117 9.7 30.6 0.00 0.00 0.00 70 1013.9
20260504194520 30 175 16.1 32.2 0.00 0.00 0.00 69 1014.0
20260504193017 30 133 11.3 24.1 0.00 0.00 0.00 67 1014.0
20260504191518 30 186 14.5 25.7 0.00 0.00 0.00 68 1014.0
20260504190023 30 163 14.5 33.8 0.00 0.00 0.00 67 1014.1
20260504184515 30 146 20.9 33.8 0.00 0.00 0.00 65 1014.2
20260504183020 31 163 16.1 27.4 0.00 0.00 0.00 65 1014.3
20260504181511 31 241 17.7 32.2 0.00 0.00 0.00 64 1014.3
20260504180011 31 160 8.0 25.7 0.00 0.00 0.00 62 1014.5
20260504174509 31 171 16.1 35.4 0.00 0.00 0.00 60 1014.6
20260504173015 30 144 22.5 40.2 0.00 0.00 0.00 58 1014.7
20260504171510 30 163 20.9 40.2 0.00 0.00 0.00 57 1015.1
20260504100105 21 150 6.4 14.5 0.00 0.00 0.00 86 1015.6
20260504090118 22 107 1.6 11.3 0.00 0.00 0.00 84 1015.6
20260504081553 21 132 4.8 8.0 0.00 0.00 0.00 86 1015.0